Regional Weather Roundup
Issued by NWS

Home | Current Version | Previous Version | Text Only | Print | Product List | Glossary Off
Versions: 1 2 3 4 5 6 7 8 9 10 11 12 13 14 15 16 17 18 19 20 21 22 23 24 25 26 27 28 29 30 31 32 33 34 35 36 37 38 39 40 41 42 43 44 45 46 47 48 49 50

000
ASUS43 KLOT 261904
RWRIL

ILLINOIS REGIONAL WEATHER ROUNDUP
NATIONAL WEATHER SERVICE CHICAGO/ROMEOVILLE IL
200 PM CDT FRI MAY 26 2017

NOTE: "FAIR" INDICATES FEW OR NO CLOUDS BELOW 12,000 FEET WITH NO
SIGNIFICANT WEATHER AND/OR OBSTRUCTIONS TO VISIBILITY.

* THESE STATIONS ARE NOT UNDER NWS QUALITY CONTROL. THEY ALSO MAY NOT
  REPORT WEATHER SUCH AS PRECIPITATION OR FOG.

ILZ001-002-007-009-015-016-024-262000-
NORTHWEST ILLINOIS

CITY           SKY/WX    TMP DP  RH WIND       PRES   REMARKS
MOLINE         CLOUDY    65  59  81 CALM      29.77R
STERLING*      RAIN      64  62  93 NW5       29.79S FOG
$$

ILZ003-004-008-010-011-017-018-262000-
NORTH CENTRAL ILLINOIS

CITY           SKY/WX    TMP DP  RH WIND       PRES   REMARKS
ROCKFORD       LGT RAIN  67  59  75 E5        29.82F
FREEPORT*      HVY RAIN  62  60  93 NE3       29.84R
ROCHELLE*      CLOUDY    68  57  68 E10       29.80F
DE KALB*       CLOUDY    68  57  68 SE8       29.82F
$$

ILZ005-006-012>014-019>023-262000-
NORTHEAST ILLINOIS

CITY           SKY/WX    TMP DP  RH WIND       PRES   REMARKS
CHICAGO-OHARE  CLOUDY    68  54  60 E10       29.83R
CHICAGO-MIDWAY CLOUDY    68  55  63 E10       29.83R
AURORA         PTSUNNY   73  57  57 E10G22    29.81F
LANSING*       CLOUDY    73  60  64 SE7       29.84R
JOLIET*        MOSUNNY   75  61  62 SE8       29.81F
WAUKEGAN       CLOUDY    57  52  83 SE6       29.85S
DUPAGE AIRPORT CLOUDY    71  59  65 E8        29.82R
WHEELING       CLOUDY    63  54  72 NE7       29.85R
MORRIS*        PTSUNNY   76  57  52 SE12G20   29.78F
ROMEOVILLE*    MOSUNNY   73  61  67 SE12G17   29.82S
NORTHERLY ISL    N/A     58  51  78 NW3         N/A
$$

LMZ740>746-262000-
SOUTHERN LAKE MICHIGAN

STATION/POSITION SKY/WX   TEMP    WIND        PRES    VSBY  WAVE
                          AIR SEA DIR/SP/G                  HT/PER
                          (F)     (DEG/KT/KT) (MB)    (MI)  (FT/S)
SOUTHERN BUOY              48 47   50/  4/  4 1011.2          1
WILMETTE HARBOR            50 52                N/A           1/ 4
HARRISON CRIB              56      90/ 12/ 13   N/A
BURNHAM HARBOR             59     360/  2/  6   N/A
CALUMET HARBOR             58      50/  5/  7 1010.0R
BURNS HARBOR               59      70/ 13/ 14 1010.8S
MICHIGAN CITY              57      40/  7/  9   N/A
MICHIGAN CITY 6N           54 53   50/  8/ 10   N/A           1/ 5
ST. JOSEPH                 56 56   20/  6/  6 1011.5R         1/ 4
$$

ILZ025>027-034>036-040-047-049-050-058-095>099-262000-
WEST-CENTRAL ILLINOIS

CITY           SKY/WX    TMP DP  RH WIND       PRES   REMARKS
QUINCY         MOSUNNY   80  66  62 W12       29.73S HX  82
GALESBURG*     TSTM      63  62  99 CALM      29.76F
MACOMB*        CLOUDY    69  64  83 NW6       29.78R
$$

ILZ028>032-037-038-041>044-048-051>054-059>061-262000-
CENTRAL ILLINOIS

CITY           SKY/WX    TMP DP  RH WIND       PRES   REMARKS
BLOOMINGTON    CLOUDY    74  63  68 S14       29.78F
DECATUR        CLOUDY    79  65  62 S9        29.77F HX  81
PEORIA         LGT RAIN  70  66  87 S6        29.74F
LACON*         CLOUDY    72  62  68 SE12      29.74F
LINCOLN*       PTSUNNY   76  64  67 CALM      29.76F
SPRINGFIELD    PTSUNNY   81  66  60 S6        29.75F HX  83
TAYLORVILLE    NOT AVBL
$$

ILZ033-039-045-046-055>057-062-063-262000-
EAST-CENTRAL ILLINOIS

CITY           SKY/WX    TMP DP  RH WIND       PRES   REMARKS
CHAMPAIGN      CLOUDY    76  63  64 S15       29.80S
MATTOON        PTSUNNY   78  66  66 S14G23    29.79F HX  80
$$

ILZ079-100>102-262000-
SOUTHWEST ILLINOIS

CITY           SKY/WX    TMP DP  RH WIND       PRES   REMARKS
ALTON          MOSUNNY   81  64  57 S14       29.73F HX  82
BELLEVILLE     MOSUNNY   80  66  61 S15G23    29.76S HX  82
CAHOKIA*       PTSUNNY   84  62  47 S12       29.73S HX  85
SPARTA*        CLOUDY    76  64  67 S8        29.78S
$$

ILZ064>066-069>071-074>076-080>082-084>086-088>090-092>094-262000-
SOUTH-CENTRAL ILLINOIS

CITY           SKY/WX    TMP DP  RH WIND       PRES   REMARKS
CARBONDALE     PTSUNNY   84  64  50 S21G29    29.76F HX  85
CAIRO*         MOSUNNY   83  61  46 S21G29    29.79F HX  83
EFFINGHAM*     MOSUNNY   81  67  61 S8G16     29.79F HX  84
MT. VERNON       N/A     81  64  56 SW15      29.79S HX  82
CENTRALIA*     PTSUNNY   79  66  63 S15       29.77S HX  81
SALEM*         SUNNY     82  62  52 S15G21    29.78S HX  82
$$

ILZ067-068-072-073-078-083-087-091-262000-
SOUTHEAST ILLINOIS

CITY           SKY/WX    TMP DP  RH WIND       PRES   REMARKS
LAWRENCEVILLE  MOSUNNY   80  66  62 S13       29.81F HX  82
FLORA*         SUNNY     83  63  50 S14G22    29.79F HX  84
FAIRFIELD*     PTSUNNY   83  59  44 S9        29.79S HX  82
HARRISBURG*    PTSUNNY   84  60  44 S12G18    29.79F HX  84
ROBINSON*      MOSUNNY   78  66  66 SE12G21   29.82F HX  80
CARMI*         PTSUNNY   83  61  47 S16       29.80S HX  83
$$

ABBREVIATIONS USED IN REMARKS
   TC - TEMPERATURE IN CELSIUS
  WCI - WIND CHILL INDEX
   HX - HEAT INDEX
  VSB - VISIBILITY
$$





USA.gov is the U.S. government's official web portal to all federal, state and local government web resources and services.